Wind_Speed
43 44 44 44 45 46 46 47 47 47 47 47 47 47 47 47 47 47 48 48 47 47 46 46 45 45 46 46 46 47 47 46 46 45 45 46 47 47 47 47 47 47 48
44 44 45 46 46 47 47 47 48 48 48 48 47 48 48 47 47 47 47 47 47 47 47 47 47 47 47 46 46 46 47 47 48 48 47 48 48 49 48 48 49 49 49
45 46 46 47 48 48 48 48 48 48 48 47 47 47 48 47 47 47 47 47 47 47 47 46 46 47 46 47 47 48 48 48 49 49 49 49 49 49 49 50 50 50 50
46 47 47 48 48 48 48 48 47 47 47 48 48 48 48 48 48 48 48 49 48 48 47 46 46 46 47 47 48 49 49 49 49 50 50 49 49 49 50 50 51 51 51
46 47 47 48 48 48 47 47 47 48 48 48 48 48 48 48 48 48 48 49 49 48 48 47 47 47 47 47 48 49 49 49 49 49 50 49 49 49 49 50 50 50 50
46 46 47 47 48 47 47 47 48 48 48 48 48 49 49 49 49 49 49 49 49 49 48 48 47 47 47 47 47 48 48 48 49 50 50 50 49 50 50 51 50 50 51
47 46 46 47 48 48 48 48 48 48 48 49 49 49 50 50 50 50 50 50 49 48 48 48 48 48 47 47 47 48 48 48 49 49 50 50 50 50 51 51 51 51 51
46 46 46 46 47 48 48 48 48 49 49 49 50 50 50 50 50 50 50 49 48 48 48 48 48 48 48 48 48 49 49 49 49 50 50 51 51 51 51 51 51 51 50
46 46 46 47 48 48 49 49 49 49 49 50 49 50 50 50 49 49 48 48 48 47 47 48 48 48 48 49 49 50 51 51 51 51 52 52 52 52 52 52 51 51 50
47 48 48 48 48 48 49 49 49 50 50 50 49 49 49 49 49 49 48 49 48 48 49 49 49 49 49 49 50 51 51 51 52 53 53 53 53 53 53 53 53 53 53
47 48 49 48 48 48 48 49 49 50 50 50 50 49 49 49 49 49 49 49 49 49 49 49 49 49 50 50 51 51 51 52 52 52 52 52 52 53 53 53 54 55 55
47 48 48 49 49 49 50 50 50 50 50 50 50 50 50 49 49 50 50 50 50 50 50 50 50 50 50 50 50 51 51 52 52 52 51 51 52 52 52 53 55 55 55
46 47 48 49 49 50 50 50 51 51 50 50 49 49 49 49 49 50 50 51 51 51 51 51 51 50 50 50 50 51 51 51 51 51 51 51 51 52 53 54 55 55 55
46 47 48 48 49 49 49 50 50 50 50 51 50 50 49 49 49 49 50 51 51 52 51 51 51 50 50 50 50 50 51 51 51 51 51 51 51 52 53 55 55 56 56
44 45 46 47 47 48 48 48 48 48 49 49 50 50 50 50 50 50 50 51 51 51 52 52 51 51 51 51 51 51 50 51 51 52 52 52 53 54 54 55 55 56 56
43 44 44 45 45 46 46 47 48 48 48 49 49 49 50 51 51 51 51 51 51 51 52 51 50 50 50 50 50 50 50 50 51 51 52 52 52 52 52 53 53 54 54
43 44 44 44 44 44 44 44 45 46 47 47 47 48 49 49 50 50 50 50 50 51 51 50 50 49 49 49 49 49 49 49 49 50 50 50 50 50 50 50 51 51 51
43 43 44 43 43 44 44 44 44 45 46 47 47 47 48 48 48 48 48 49 49 49 50 51 51 50 50 50 49 49 49 49 49 49 48 48 48 48 49 49 49 50 50
44 44 44 44 44 44 44 44 44 45 45 46 46 46 46 47 47 47 47 47 47 48 48 48 49 49 50 50 50 50 49 49 49 48 48 48 48 48 48 48 48 48 47
44 43 43 43 43 43 43 43 43 44 45 45 45 46 46 47 47 47 47 47 47 47 47 47 47 48 48 48 48 49 49 49 49 48 48 48 48 48 47 46 46 46 45
42 41 41 41 42 42 42 43 43 44 44 45 45 45 45 45 45 45 46 46 46 46 46 47 47 48 48 48 48 48 48 48 48 48 48 48 47 47 47 46 46 45 45
40 40 41 41 41 42 42 43 43 43 44 44 43 44 44 44 44 45 45 46 46 47 47 47 48 48 48 48 47 47 46 46 47 47 47 48 47 47 47 46 46 46 46
39 39 40 40 41 41 41 42 42 42 42 42 42 42 43 43 43 44 44 45 46 46 46 46 47 47 47 47 46 46 46 46 46 46 46 46 46 46 45 45 45 45 45
38 39 39 40 40 40 40 41 41 41 41 41 41 41 42 42 42 42 43 43 44 44 44 45 45 45 45 45 45 45 45 45 45 45 44 44 44 44 44 43 43 43 43
38 38 39 39 39 40 40 40 41 41 41 41 41 41 41 41 41 41 41 41 41 42 42 43 43 43 43 43 43 42 42 43 43 43 42 42 42 42 42 42 41 41 40
37 38 39 39 39 39 39 40 40 41 41 41 40 40 40 40 40 39 39 39 39 40 40 41 41 41 41 40 40 40 40 41 41 41 41 41 40 40 40 40 39 39 39
Wind_Direction
259 259 259 259 260 260 260 260 260 261 261 261 260 261 263 264 265 266 266 267 267 268 269 269 269 270 269 270 269 269 270 270 269 270 270 270 270 271 271 271 272 273 273
260 260 260 260 260 260 260 260 260 261 261 261 261 261 263 264 265 266 266 267 267 268 269 269 269 269 269 270 269 270 271 271 271 270 270 270 270 271 272 272 272 272 273
261 261 262 261 261 261 261 260 260 260 261 261 261 262 263 264 264 265 266 266 267 268 269 269 269 269 269 269 269 270 271 271 271 272 272 271 271 271 272 272 272 272 272
263 262 262 263 262 262 261 261 260 260 261 261 261 262 263 264 264 265 266 267 267 267 267 268 269 268 269 269 269 269 270 270 271 271 271 272 273 272 272 272 273 273 273
263 263 262 262 262 262 261 261 261 261 263 263 264 264 264 265 265 265 266 266 267 267 268 268 269 270 270 270 270 269 270 270 270 271 271 271 272 272 273 273 274 274 274
264 263 263 263 262 262 261 262 262 263 264 264 264 264 265 265 265 266 267 267 267 267 268 268 268 269 270 270 271 271 271 271 272 272 272 272 273 274 274 275 276 276 275
265 264 263 263 263 262 262 263 263 264 264 264 264 264 265 265 266 266 268 268 268 267 268 268 268 269 270 270 270 272 273 273 274 273 273 274 274 274 275 276 276 276 275
265 264 263 263 264 264 264 264 264 265 266 266 266 266 266 267 267 267 268 267 267 268 268 268 269 269 270 270 270 271 273 273 274 274 274 275 275 275 276 276 276 275 275
263 264 264 264 265 264 264 264 264 265 266 267 268 268 268 267 267 267 266 267 268 268 268 269 269 270 272 272 272 272 273 274 275 274 275 276 276 276 276 276 275 275 276
264 264 264 265 265 265 265 264 265 266 266 268 268 268 267 266 266 265 265 267 267 268 269 270 270 271 273 273 272 273 274 274 275 275 276 276 277 277 275 275 275 276 276
266 266 266 265 265 265 265 265 265 265 267 267 268 267 266 266 265 265 266 266 267 268 269 270 271 272 273 274 274 274 274 274 274 275 275 276 276 276 275 275 275 276 276
266 267 266 266 266 266 266 266 265 266 266 267 267 267 266 265 265 265 266 266 267 269 269 270 271 272 273 275 275 275 275 275 275 275 275 275 275 275 275 276 276 276 276
266 267 267 268 268 268 267 266 265 265 266 266 266 266 265 265 265 265 266 267 268 269 270 271 271 272 273 273 274 275 276 276 276 276 275 275 275 275 276 276 276 276 276
268 268 268 269 269 268 268 268 267 266 266 265 265 265 266 266 266 267 267 268 269 269 270 271 271 271 272 272 273 274 275 275 275 275 276 276 276 276 277 277 277 277 276
269 269 270 270 270 269 269 268 267 266 266 266 265 265 265 266 267 267 267 268 269 269 269 270 271 272 273 273 273 274 275 275 275 275 276 277 277 277 277 277 277 277 277
270 270 271 271 271 270 269 267 267 267 267 267 267 266 266 267 267 268 268 269 269 269 269 270 271 272 273 273 274 274 275 275 276 276 276 276 277 278 278 278 278 277 277
271 270 271 271 271 270 269 268 267 267 268 268 268 268 268 268 268 268 269 269 269 269 269 270 271 272 272 273 274 275 275 276 276 277 278 277 278 278 278 278 278 278 278
271 270 271 271 271 270 270 269 268 268 268 269 270 270 270 269 269 269 269 269 269 270 270 270 271 271 272 273 274 275 276 277 277 278 278 278 278 279 279 279 278 278 278
272 272 271 271 271 271 271 271 270 269 269 270 270 271 270 270 269 269 270 270 270 270 271 271 271 272 272 272 273 275 275 276 277 278 278 278 278 279 279 279 279 279 278
272 271 271 271 271 271 271 271 271 271 271 271 271 271 271 270 270 270 270 270 271 271 271 271 272 272 273 274 275 275 276 276 276 276 277 278 278 278 278 278 278 279 278
272 272 271 271 271 271 271 271 272 272 272 272 272 271 271 271 270 270 271 271 272 272 272 272 272 272 273 274 275 275 276 276 276 276 277 277 277 278 277 277 277 278 278
273 273 272 272 271 272 271 271 272 272 273 273 273 273 272 271 271 271 272 272 273 273 273 273 273 274 274 274 274 275 276 276 277 277 277 277 277 278 278 277 277 277 277
274 274 273 273 272 272 272 272 272 273 273 273 273 273 273 273 273 272 272 272 273 273 273 274 274 274 274 274 274 275 276 277 277 278 278 277 277 278 278 277 277 277 276
275 274 274 274 273 273 273 273 273 274 274 274 274 274 274 274 273 273 273 273 273 274 275 275 275 274 274 274 275 275 275 276 276 277 278 278 278 277 277 277 276 276 276
276 275 275 275 275 275 274 274 274 275 275 275 275 275 274 274 273 273 273 274 274 275 275 275 275 274 274 274 275 275 276 276 277 277 278 279 278 278 277 276 275 275 276
278 277 276 275 275 276 276 276 276 276 275 275 275 275 275 274 274 274 274 274 275 275 275 275 275 275 275 275 275 276 276 277 277 278 278 279 278 278 278 277 276 276 275
Height
5617 5618 5619 5620 5620 5621 5622 5624 5625 5626 5627 5628 5629 5630 5631 5632 5632 5633 5633 5633 5634 5634 5634 5634 5634 5633 5633 5632 5632 5632 5632 5632 5633 5634 5633 5632 5632 5632 5631 5631 5631 5630 5630
5605 5606 5607 5608 5609 5610 5610 5611 5612 5613 5614 5615 5616 5617 5618 5618 5619 5619 5620 5620 5620 5621 5621 5621 5621 5620 5620 5619 5619 5619 5619 5619 5620 5621 5621 5620 5619 5619 5618 5618 5618 5617 5617
5594 5594 5595 5595 5596 5597 5598 5598 5599 5600 5601 5601 5602 5603 5604 5605 5606 5606 5606 5607 5607 5607 5607 5608 5608 5608 5607 5607 5607 5607 5606 5606 5606 5606 5607 5606 5606 5606 5605 5605 5605 5604 5603
5581 5582 5582 5583 5583 5584 5584 5585 5586 5587 5588 5589 5589 5590 5591 5592 5592 5592 5593 5593 5593 5594 5594 5594 5594 5595 5594 5594 5594 5593 5593 5593 5592 5592 5593 5593 5592 5592 5591 5591 5591 5590 5590
5569 5569 5569 5570 5570 5571 5571 5572 5573 5574 5575 5576 5576 5576 5577 5578 5578 5579 5579 5579 5580 5580 5580 5581 5581 5581 5581 5580 5580 5580 5579 5579 5579 5578 5578 5578 5578 5578 5577 5577 5576 5575 5575
5555 5556 5556 5556 5557 5558 5559 5560 5560 5561 5562 5562 5563 5563 5564 5564 5565 5565 5565 5566 5566 5566 5567 5567 5568 5568 5567 5567 5567 5566 5566 5565 5565 5564 5564 5564 5564 5563 5563 5562 5561 5561 5561
5542 5543 5543 5543 5544 5545 5546 5547 5547 5548 5548 5549 5549 5549 5550 5550 5551 5551 5551 5551 5552 5552 5553 5554 5554 5554 5554 5554 5553 5552 5552 5551 5550 5550 5550 5550 5549 5549 5548 5548 5546 5545 5545
5529 5529 5529 5530 5531 5532 5532 5533 5534 5534 5535 5535 5535 5535 5536 5536 5537 5537 5537 5537 5538 5538 5539 5540 5540 5540 5540 5540 5539 5539 5538 5537 5536 5535 5535 5535 5534 5533 5532 5532 5531 5531 5530
5515 5516 5516 5517 5517 5518 5519 5520 5520 5521 5521 5521 5521 5521 5522 5522 5523 5523 5523 5524 5524 5525 5526 5526 5526 5526 5526 5525 5525 5525 5524 5522 5521 5520 5520 5519 5518 5518 5517 5517 5516 5516 5516
5502 5502 5503 5503 5504 5504 5505 5506 5506 5507 5507 5507 5507 5507 5507 5508 5508 5509 5510 5511 5512 5512 5513 5513 5512 5512 5511 5510 5510 5510 5509 5508 5507 5506 5505 5504 5503 5502 5502 5501 5501 5500 5500
5488 5488 5489 5489 5489 5490 5490 5491 5492 5492 5493 5493 5493 5493 5494 5494 5495 5495 5496 5497 5498 5498 5499 5499 5498 5497 5497 5496 5495 5495 5494 5493 5492 5491 5490 5489 5488 5487 5487 5486 5485 5484 5484
5474 5474 5475 5475 5475 5476 5476 5476 5477 5477 5478 5478 5479 5479 5479 5480 5481 5481 5482 5482 5483 5484 5484 5484 5484 5483 5482 5481 5480 5479 5479 5478 5477 5476 5475 5474 5473 5473 5472 5471 5470 5468 5467
5460 5460 5460 5460 5461 5461 5461 5461 5462 5462 5463 5463 5464 5464 5465 5465 5466 5467 5467 5468 5468 5468 5469 5469 5468 5468 5467 5467 5466 5465 5464 5463 5462 5461 5460 5459 5458 5457 5456 5455 5453 5452 5452
5446 5446 5446 5446 5446 5446 5446 5446 5446 5447 5447 5448 5449 5450 5450 5451 5451 5452 5452 5453 5453 5453 5453 5453 5453 5453 5452 5452 5451 5450 5449 5448 5447 5446 5445 5444 5443 5441 5440 5438 5437 5436 5436
5432 5431 5431 5431 5431 5431 5431 5431 5431 5432 5432 5433 5434 5435 5435 5436 5436 5437 5437 5438 5438 5438 5438 5438 5438 5438 5437 5437 5436 5435 5434 5433 5432 5431 5430 5429 5427 5426 5424 5422 5421 5420 5419
5418 5418 5417 5417 5417 5416 5416 5416 5416 5417 5417 5418 5418 5419 5420 5421 5421 5421 5422 5422 5422 5422 5422 5422 5422 5422 5422 5421 5421 5420 5419 5417 5416 5415 5413 5412 5411 5410 5408 5406 5405 5403 5402
5405 5404 5404 5403 5403 5402 5402 5402 5402 5402 5402 5403 5403 5404 5404 5405 5405 5406 5406 5406 5406 5406 5406 5407 5407 5407 5406 5406 5405 5405 5403 5402 5400 5399 5398 5397 5395 5394 5392 5391 5389 5388 5386
5391 5391 5390 5390 5389 5389 5389 5388 5388 5389 5389 5389 5389 5389 5389 5389 5390 5390 5390 5390 5391 5391 5391 5391 5391 5391 5391 5390 5390 5389 5388 5387 5385 5384 5382 5381 5379 5378 5377 5375 5374 5372 5371
5377 5377 5376 5376 5376 5375 5375 5375 5375 5374 5375 5375 5374 5374 5374 5374 5374 5375 5375 5375 5376 5376 5375 5375 5375 5375 5374 5374 5374 5373 5372 5371 5370 5369 5367 5366 5364 5363 5361 5360 5358 5356 5355
5362 5362 5362 5362 5362 5361 5361 5361 5361 5361 5361 5361 5361 5360 5360 5360 5360 5360 5360 5360 5360 5360 5360 5360 5359 5359 5359 5358 5358 5357 5357 5356 5355 5354 5352 5351 5349 5347 5346 5344 5343 5341 5340
5348 5348 5348 5348 5348 5348 5348 5347 5347 5347 5346 5346 5346 5346 5345 5345 5346 5346 5345 5345 5345 5345 5345 5345 5344 5344 5343 5343 5342 5342 5341 5340 5339 5338 5337 5335 5334 5332 5331 5329 5328 5327 5325
5335 5335 5335 5335 5334 5334 5334 5333 5333 5333 5332 5332 5332 5331 5331 5331 5331 5331 5331 5331 5330 5330 5329 5329 5329 5328 5328 5327 5327 5326 5326 5325 5324 5323 5321 5320 5319 5317 5316 5314 5313 5312 5311
5323 5322 5321 5321 5321 5320 5320 5320 5319 5319 5318 5318 5318 5317 5316 5316 5316 5316 5316 5315 5315 5314 5314 5313 5313 5313 5312 5312 5311 5311 5310 5310 5308 5307 5306 5305 5304 5302 5301 5299 5298 5297 5296
5310 5309 5308 5308 5307 5306 5306 5306 5305 5305 5304 5304 5303 5303 5302 5302 5301 5301 5300 5300 5300 5299 5298 5298 5298 5297 5297 5297 5296 5296 5295 5294 5293 5292 5291 5290 5289 5287 5286 5285 5284 5283 5282
5296 5295 5295 5294 5293 5292 5292 5292 5291 5291 5290 5290 5289 5289 5288 5288 5287 5286 5286 5285 5285 5284 5284 5283 5283 5282 5282 5282 5281 5281 5280 5279 5278 5278 5277 5276 5275 5273 5272 5271 5270 5270 5269
5283 5282 5281 5280 5280 5279 5278 5278 5277 5276 5276 5276 5275 5275 5274 5274 5273 5272 5272 5271 5271 5270 5270 5269 5269 5268 5268 5267 5267 5267 5266 5265 5264 5264 5263 5262 5261 5259 5258 5257 5257 5256 5256